Year,Month,Day,Hour,Minute,Value (Times are PST for temperature in C)
2016,04,23,00,00,10.60
2016,04,23,00,01,10.60
2016,04,23,00,02,10.60
2016,04,23,00,03,10.60
2016,04,23,00,04,10.60
2016,04,23,00,05,10.60
2016,04,23,00,06,10.60
2016,04,23,00,07,10.60
2016,04,23,00,08,10.60
2016,04,23,00,09,10.60
2016,04,23,00,10,10.60
2016,04,23,00,11,10.60
2016,04,23,00,12,10.60
2016,04,23,00,13,10.60
2016,04,23,00,14,10.60
2016,04,23,00,15,10.60
2016,04,23,00,16,10.60
2016,04,23,00,17,10.60
2016,04,23,00,18,10.60
2016,04,23,00,19,10.60
2016,04,23,00,20,10.60
2016,04,23,00,21,10.60
2016,04,23,00,22,10.70
2016,04,23,00,23,10.70
2016,04,23,00,24,10.70
2016,04,23,00,25,10.80
2016,04,23,00,26,10.80
2016,04,23,00,27,10.80
2016,04,23,00,28,10.80
2016,04,23,00,29,10.80
2016,04,23,00,30,10.90
2016,04,23,00,31,10.90
2016,04,23,00,32,10.90
2016,04,23,00,33,10.90
2016,04,23,00,34,11.00
2016,04,23,00,35,10.90
2016,04,23,00,36,10.90
2016,04,23,00,37,10.90
2016,04,23,00,38,11.00
2016,04,23,00,39,11.00
2016,04,23,00,40,11.10
2016,04,23,00,41,11.10
2016,04,23,00,42,11.10
2016,04,23,00,43,11.10
2016,04,23,00,44,11.10
2016,04,23,00,45,11.20
2016,04,23,00,46,11.20
2016,04,23,00,47,11.20
2016,04,23,00,48,11.20
2016,04,23,00,49,11.20
2016,04,23,00,50,11.20
2016,04,23,00,51,11.20
2016,04,23,00,52,11.20
2016,04,23,00,53,11.20
2016,04,23,00,54,11.20
2016,04,23,00,55,11.20
2016,04,23,00,56,11.30
2016,04,23,00,57,11.30
2016,04,23,00,58,11.30
2016,04,23,00,59,11.30
2016,04,23,01,00,11.30
2016,04,23,01,01,11.30
2016,04,23,01,02,11.40
2016,04,23,01,03,11.40
2016,04,23,01,04,11.40
2016,04,23,01,05,11.40
2016,04,23,01,06,11.50
2016,04,23,01,07,11.50
2016,04,23,01,08,11.50
2016,04,23,01,09,11.50
2016,04,23,01,10,11.50
2016,04,23,01,11,11.50
2016,04,23,01,12,11.50
2016,04,23,01,13,11.50
2016,04,23,01,14,11.50
2016,04,23,01,15,11.40
2016,04,23,01,16,11.50
2016,04,23,01,17,11.50
2016,04,23,01,18,11.50
2016,04,23,01,19,11.50
2016,04,23,01,20,11.50
2016,04,23,01,21,11.50
2016,04,23,01,22,11.50
2016,04,23,01,23,11.50
2016,04,23,01,24,11.50
2016,04,23,01,25,11.50
2016,04,23,01,26,11.40
2016,04,23,01,27,11.40
2016,04,23,01,28,11.40
2016,04,23,01,29,11.40
2016,04,23,01,30,11.40
2016,04,23,01,31,11.40
2016,04,23,01,32,11.40
2016,04,23,01,33,11.40
2016,04,23,01,34,11.40
2016,04,23,01,35,11.40
2016,04,23,01,36,11.40
2016,04,23,01,37,11.50
2016,04,23,01,38,11.50
2016,04,23,01,39,11.60
2016,04,23,01,40,11.60
2016,04,23,01,41,11.70
2016,04,23,01,42,11.70
2016,04,23,01,43,11.70
2016,04,23,01,44,11.80
2016,04,23,01,45,11.80
2016,04,23,01,46,11.80
2016,04,23,01,47,11.80
2016,04,23,01,48,11.80
2016,04,23,01,49,11.80
2016,04,23,01,50,11.80
2016,04,23,01,51,11.80
2016,04,23,01,52,11.80
2016,04,23,01,53,11.80
2016,04,23,01,54,11.80
2016,04,23,01,55,11.80
2016,04,23,01,56,11.80
2016,04,23,01,57,11.80
2016,04,23,01,58,11.80
2016,04,23,01,59,11.80
2016,04,23,02,00,11.80
2016,04,23,02,01,11.80
2016,04,23,02,02,11.80
2016,04,23,02,03,11.80
2016,04,23,02,04,11.80
2016,04,23,02,05,11.80
2016,04,23,02,06,11.80
2016,04,23,02,07,11.80
2016,04,23,02,08,11.70
2016,04,23,02,09,11.70
2016,04,23,02,10,11.70
2016,04,23,02,11,11.70
2016,04,23,02,12,11.70
2016,04,23,02,13,11.60
2016,04,23,02,14,11.60
2016,04,23,02,15,11.60
2016,04,23,02,16,11.60
2016,04,23,02,17,11.60
2016,04,23,02,18,11.60
2016,04,23,02,19,11.60
2016,04,23,02,20,11.70
2016,04,23,02,21,11.70
2016,04,23,02,22,11.70
2016,04,23,02,23,11.70
2016,04,23,02,24,11.70
2016,04,23,02,25,11.70
2016,04,23,02,26,11.70
2016,04,23,02,27,11.70
2016,04,23,02,28,11.70
2016,04,23,02,29,11.70
2016,04,23,02,30,11.70
2016,04,23,02,31,11.70
2016,04,23,02,32,11.80
2016,04,23,02,33,11.80
2016,04,23,02,34,11.80
2016,04,23,02,35,11.80
2016,04,23,02,36,11.90
2016,04,23,02,37,11.90
2016,04,23,02,38,11.90
2016,04,23,02,39,11.90
2016,04,23,02,40,11.90
2016,04,23,02,41,11.90
2016,04,23,02,42,11.90
2016,04,23,02,43,11.90
2016,04,23,02,44,12.00
2016,04,23,02,45,12.00
2016,04,23,02,46,12.10
2016,04,23,02,47,12.10
2016,04,23,02,48,12.20
2016,04,23,02,49,12.20
2016,04,23,02,50,12.30
2016,04,23,02,51,12.30
2016,04,23,02,52,12.40
2016,04,23,02,53,12.40
2016,04,23,02,54,12.50
2016,04,23,02,55,12.50
2016,04,23,02,56,12.60
2016,04,23,02,57,12.60
2016,04,23,02,58,12.60
2016,04,23,02,59,12.70
2016,04,23,03,00,12.70
2016,04,23,03,01,12.70
2016,04,23,03,02,12.80
2016,04,23,03,03,12.80
2016,04,23,03,04,12.80
2016,04,23,03,05,12.80
2016,04,23,03,06,12.80
2016,04,23,03,07,12.80
2016,04,23,03,08,12.80
2016,04,23,03,09,12.80
2016,04,23,03,10,12.80
2016,04,23,03,11,12.80
2016,04,23,03,12,12.80
2016,04,23,03,13,12.80
2016,04,23,03,14,12.80
2016,04,23,03,15,12.80
2016,04,23,03,16,12.80
2016,04,23,03,17,12.70
2016,04,23,03,18,12.70
2016,04,23,03,19,12.70
2016,04,23,03,20,12.70
2016,04,23,03,21,12.80
2016,04,23,03,22,12.80
2016,04,23,03,23,12.80
2016,04,23,03,24,12.80
2016,04,23,03,25,12.80
2016,04,23,03,26,12.80
2016,04,23,03,27,12.80
2016,04,23,03,28,12.80
2016,04,23,03,29,12.80
2016,04,23,03,30,12.80
2016,04,23,03,31,12.80
2016,04,23,03,32,12.80
2016,04,23,03,33,12.80
2016,04,23,03,34,12.80
2016,04,23,03,35,12.80
2016,04,23,03,36,12.80
2016,04,23,03,37,12.80
2016,04,23,03,38,12.80
2016,04,23,03,39,12.80
2016,04,23,03,40,12.80
2016,04,23,03,41,12.80
2016,04,23,03,42,12.80
2016,04,23,03,43,12.80
2016,04,23,03,44,12.80
2016,04,23,03,45,12.80
2016,04,23,03,46,12.80
2016,04,23,03,47,12.80
2016,04,23,03,48,12.80
2016,04,23,03,49,12.80
2016,04,23,03,50,12.80
2016,04,23,03,51,12.90
2016,04,23,03,52,12.90
2016,04,23,03,53,12.90
2016,04,23,03,54,12.90
2016,04,23,03,55,12.90
2016,04,23,03,56,12.90
2016,04,23,03,57,12.80
2016,04,23,03,58,12.80
2016,04,23,03,59,12.80
2016,04,23,04,00,12.80
2016,04,23,04,01,12.80
2016,04,23,04,02,12.80
2016,04,23,04,03,12.80
2016,04,23,04,04,12.80
2016,04,23,04,05,12.80
2016,04,23,04,06,12.70
2016,04,23,04,07,12.70
2016,04,23,04,08,12.70
2016,04,23,04,09,12.70
2016,04,23,04,10,12.60
2016,04,23,04,11,12.60
2016,04,23,04,12,12.60
2016,04,23,04,13,12.60
2016,04,23,04,14,12.60
2016,04,23,04,15,12.50
2016,04,23,04,16,12.50
2016,04,23,04,17,12.40
2016,04,23,04,18,12.40
2016,04,23,04,19,12.40
2016,04,23,04,20,12.30
2016,04,23,04,21,12.30
2016,04,23,04,22,12.30
2016,04,23,04,23,12.30
2016,04,23,04,24,12.30
2016,04,23,04,25,12.30
2016,04,23,04,26,12.30
2016,04,23,04,27,12.30
2016,04,23,04,28,12.30
2016,04,23,04,29,12.30
2016,04,23,04,30,12.30
2016,04,23,04,31,12.30
2016,04,23,04,32,12.20
2016,04,23,04,33,12.20
2016,04,23,04,34,12.10
2016,04,23,04,35,12.10
2016,04,23,04,36,12.10
2016,04,23,04,37,12.10
2016,04,23,04,38,12.00
2016,04,23,04,39,12.00
2016,04,23,04,40,12.00
2016,04,23,04,41,11.90
2016,04,23,04,42,11.90
2016,04,23,04,43,11.90
2016,04,23,04,44,11.90
2016,04,23,04,45,11.90
2016,04,23,04,46,11.90
2016,04,23,04,47,11.90
2016,04,23,04,48,11.90
2016,04,23,04,49,11.90
2016,04,23,04,50,11.90
2016,04,23,04,51,12.00
2016,04,23,04,52,12.00
2016,04,23,04,53,12.00
2016,04,23,04,54,12.00
2016,04,23,04,55,12.10
2016,04,23,04,56,12.10
2016,04,23,04,57,12.10
2016,04,23,04,58,12.10
2016,04,23,04,59,12.10
2016,04,23,05,00,12.10
2016,04,23,05,01,12.00
2016,04,23,05,02,12.00
2016,04,23,05,03,11.90
2016,04,23,05,04,11.90
2016,04,23,05,05,11.80
2016,04,23,05,06,11.80
2016,04,23,05,07,11.70
2016,04,23,05,08,11.70
2016,04,23,05,09,11.70
2016,04,23,05,10,11.70
2016,04,23,05,11,11.70
2016,04,23,05,12,11.70
2016,04,23,05,13,11.70
2016,04,23,05,14,11.70
2016,04,23,05,15,11.70
2016,04,23,05,16,11.60
2016,04,23,05,17,11.60
2016,04,23,05,18,11.50
2016,04,23,05,19,11.40
2016,04,23,05,20,11.40
2016,04,23,05,21,11.30
2016,04,23,05,22,11.30
2016,04,23,05,23,11.30
2016,04,23,05,24,11.30
2016,04,23,05,25,11.20
2016,04,23,05,26,11.20
2016,04,23,05,27,11.20
2016,04,23,05,28,11.10
2016,04,23,05,29,11.00
2016,04,23,05,30,11.00
2016,04,23,05,31,10.90
2016,04,23,05,32,10.90
2016,04,23,05,33,10.80
2016,04,23,05,34,10.80
2016,04,23,05,35,10.70
2016,04,23,05,36,10.70
2016,04,23,05,37,10.60
2016,04,23,05,38,10.60
2016,04,23,05,39,10.50
2016,04,23,05,40,10.40
2016,04,23,05,41,10.40
2016,04,23,05,42,10.30
2016,04,23,05,43,10.30
2016,04,23,05,44,10.20
2016,04,23,05,45,10.20
2016,04,23,05,46,10.10
2016,04,23,05,47,10.10
2016,04,23,05,48,10.00
2016,04,23,05,49,10.00
2016,04,23,05,50,9.90
2016,04,23,05,51,9.90
2016,04,23,05,52,9.80
2016,04,23,05,53,9.80
2016,04,23,05,54,9.80
2016,04,23,05,55,9.70
2016,04,23,05,56,9.70
2016,04,23,05,57,9.70
2016,04,23,05,58,9.70
2016,04,23,05,59,9.60
2016,04,23,06,00,9.60
2016,04,23,06,01,9.60
2016,04,23,06,02,9.50
2016,04,23,06,03,9.50
2016,04,23,06,04,9.50
2016,04,23,06,05,9.40
2016,04,23,06,06,9.40
2016,04,23,06,07,9.40
2016,04,23,06,08,9.40
2016,04,23,06,09,9.30
2016,04,23,06,10,9.30
2016,04,23,06,11,9.30
2016,04,23,06,12,9.30
2016,04,23,06,13,9.20
2016,04,23,06,14,9.20
2016,04,23,06,15,9.20
2016,04,23,06,16,9.20
2016,04,23,06,17,9.10
2016,04,23,06,18,9.10
2016,04,23,06,19,9.10
2016,04,23,06,20,9.00
2016,04,23,06,21,9.00
2016,04,23,06,22,8.90
2016,04,23,06,23,8.90
2016,04,23,06,24,8.90
2016,04,23,06,25,8.80
2016,04,23,06,26,8.80
2016,04,23,06,27,8.80
2016,04,23,06,28,8.80
2016,04,23,06,29,8.80
2016,04,23,06,30,8.80
2016,04,23,06,31,8.70
2016,04,23,06,32,8.70
2016,04,23,06,33,8.70
2016,04,23,06,34,8.70
2016,04,23,06,35,8.70
2016,04,23,06,36,8.70
2016,04,23,06,37,8.60
2016,04,23,06,38,8.60
2016,04,23,06,39,8.60
2016,04,23,06,40,8.60
2016,04,23,06,41,8.60
2016,04,23,06,42,8.60
2016,04,23,06,43,8.60
2016,04,23,06,44,8.50
2016,04,23,06,45,8.50
2016,04,23,06,46,8.50
2016,04,23,06,47,8.50
2016,04,23,06,48,8.50
2016,04,23,06,49,8.50
2016,04,23,06,50,8.50
2016,04,23,06,51,8.40
2016,04,23,06,52,8.40
2016,04,23,06,53,8.40
2016,04,23,06,54,8.50
2016,04,23,06,55,8.50
2016,04,23,06,56,8.50
2016,04,23,06,57,8.50
2016,04,23,06,58,8.50
2016,04,23,06,59,8.50
2016,04,23,07,00,8.50
2016,04,23,07,01,8.50
2016,04,23,07,02,8.50
2016,04,23,07,03,8.50
2016,04,23,07,04,8.60
2016,04,23,07,05,8.60
2016,04,23,07,06,8.60
2016,04,23,07,07,8.60
2016,04,23,07,08,8.60
2016,04,23,07,09,8.60
2016,04,23,07,10,8.70
2016,04,23,07,11,8.70
2016,04,23,07,12,8.70
2016,04,23,07,13,8.70
2016,04,23,07,14,8.80
2016,04,23,07,15,8.80
2016,04,23,07,16,8.80
2016,04,23,07,17,8.90
2016,04,23,07,18,8.90
2016,04,23,07,19,9.00
2016,04,23,07,20,9.10
2016,04,23,07,21,9.10
2016,04,23,07,22,9.20
2016,04,23,07,23,9.20
2016,04,23,07,24,9.30
2016,04,23,07,25,9.30
2016,04,23,07,26,9.40
2016,04,23,07,27,9.40
2016,04,23,07,28,9.50
2016,04,23,07,29,9.50
2016,04,23,07,30,9.60
2016,04,23,07,31,9.60
2016,04,23,07,32,9.70
2016,04,23,07,33,9.90
2016,04,23,07,34,10.10
2016,04,23,07,35,10.20
2016,04,23,07,36,10.30
2016,04,23,07,37,10.40
2016,04,23,07,38,10.50
2016,04,23,07,39,10.70
2016,04,23,07,40,10.90
2016,04,23,07,41,11.10
2016,04,23,07,42,11.20
2016,04,23,07,43,11.30
2016,04,23,07,44,11.40
2016,04,23,07,45,11.50
2016,04,23,07,46,11.60
2016,04,23,07,47,11.70
2016,04,23,07,48,11.70
2016,04,23,07,49,11.80
2016,04,23,07,50,11.80
2016,04,23,07,51,11.90
2016,04,23,07,52,12.00
2016,04,23,07,53,12.10
2016,04,23,07,54,12.20
2016,04,23,07,55,12.30
2016,04,23,07,56,12.40
2016,04,23,07,57,12.40
2016,04,23,07,58,12.40
2016,04,23,07,59,12.50
2016,04,23,08,00,12.50
2016,04,23,08,01,12.50
2016,04,23,08,02,12.60
2016,04,23,08,03,12.60
2016,04,23,08,04,12.60
2016,04,23,08,05,12.60
2016,04,23,08,06,12.60
2016,04,23,08,07,12.70
2016,04,23,08,08,12.70
2016,04,23,08,09,12.70
2016,04,23,08,10,12.70
2016,04,23,08,11,12.80
2016,04,23,08,12,12.80
2016,04,23,08,13,12.90
2016,04,23,08,14,12.90
2016,04,23,08,15,12.90
2016,04,23,08,16,12.90
2016,04,23,08,17,13.00
2016,04,23,08,18,13.00
2016,04,23,08,19,13.00
2016,04,23,08,20,13.10
2016,04,23,08,21,13.10
2016,04,23,08,22,13.10
2016,04,23,08,23,13.20
2016,04,23,08,24,13.20
2016,04,23,08,25,13.20
2016,04,23,08,26,13.30
2016,04,23,08,27,13.30
2016,04,23,08,28,13.30
2016,04,23,08,29,13.40
2016,04,23,08,30,13.50
2016,04,23,08,31,13.60
2016,04,23,08,32,13.60
2016,04,23,08,33,13.60
2016,04,23,08,34,13.70
2016,04,23,08,35,13.70
2016,04,23,08,36,13.70
2016,04,23,08,37,13.80
2016,04,23,08,38,13.80
2016,04,23,08,39,13.90
2016,04,23,08,40,13.90
2016,04,23,08,41,13.90
2016,04,23,08,42,13.90
2016,04,23,08,43,13.90
2016,04,23,08,44,13.90
2016,04,23,08,45,13.90
2016,04,23,08,46,13.90
2016,04,23,08,47,14.00
2016,04,23,08,48,14.10
2016,04,23,08,49,14.10
2016,04,23,08,50,14.20
2016,04,23,08,51,14.30
2016,04,23,08,52,14.30
2016,04,23,08,53,14.30
2016,04,23,08,54,14.30
2016,04,23,08,55,14.30
2016,04,23,08,56,14.30
2016,04,23,08,57,14.40
2016,04,23,08,58,14.50
2016,04,23,08,59,14.60
2016,04,23,09,00,14.70
2016,04,23,09,01,14.70
2016,04,23,09,02,14.80
2016,04,23,09,03,14.80
2016,04,23,09,04,14.80
2016,04,23,09,05,14.90
2016,04,23,09,06,14.90
2016,04,23,09,07,14.90
2016,04,23,09,08,14.90
2016,04,23,09,09,14.90
2016,04,23,09,10,14.90
2016,04,23,09,11,14.90
2016,04,23,09,12,14.90
2016,04,23,09,13,14.90
2016,04,23,09,14,15.00
2016,04,23,09,15,14.90
2016,04,23,09,16,14.90
2016,04,23,09,17,14.90
2016,04,23,09,18,14.90
2016,04,23,09,19,15.00
2016,04,23,09,20,15.00
2016,04,23,09,21,15.10
2016,04,23,09,22,15.10
2016,04,23,09,23,15.20
2016,04,23,09,24,15.10
2016,04,23,09,25,15.10
2016,04,23,09,26,15.10
2016,04,23,09,27,15.10
2016,04,23,09,28,15.20
2016,04,23,09,29,15.20
2016,04,23,09,30,15.20
2016,04,23,09,31,15.30
2016,04,23,09,32,15.30
2016,04,23,09,33,15.30
2016,04,23,09,34,15.40
2016,04,23,09,35,15.40
2016,04,23,09,36,15.40
2016,04,23,09,37,15.40
2016,04,23,09,38,15.30
2016,04,23,09,39,15.30
2016,04,23,09,40,15.20
2016,04,23,09,41,15.20
2016,04,23,09,42,15.20
2016,04,23,09,43,15.20
2016,04,23,09,44,15.30
2016,04,23,09,45,15.30
2016,04,23,09,46,15.30
2016,04,23,09,47,15.40
2016,04,23,09,48,15.40
2016,04,23,09,49,15.50
2016,04,23,09,50,15.50
2016,04,23,09,51,15.40
2016,04,23,09,52,15.40
2016,04,23,09,53,15.30
2016,04,23,09,54,15.20
2016,04,23,09,55,15.20
2016,04,23,09,56,15.20
2016,04,23,09,57,15.20
2016,04,23,09,58,15.20
2016,04,23,09,59,15.20
2016,04,23,10,00,15.10
2016,04,23,10,01,15.20
2016,04,23,10,02,15.20
2016,04,23,10,03,15.20
2016,04,23,10,04,15.30
2016,04,23,10,05,15.40
2016,04,23,10,06,15.50
2016,04,23,10,07,15.60
2016,04,23,10,08,15.70
2016,04,23,10,09,15.80
2016,04,23,10,10,15.80
2016,04,23,10,11,15.90
2016,04,23,10,12,16.00
2016,04,23,10,13,16.00
2016,04,23,10,14,16.10
2016,04,23,10,15,16.10
2016,04,23,10,16,16.10
2016,04,23,10,17,16.00
2016,04,23,10,18,15.90
2016,04,23,10,19,15.80
2016,04,23,10,20,15.70
2016,04,23,10,21,15.60
2016,04,23,10,22,15.60
2016,04,23,10,23,15.50
2016,04,23,10,24,15.50
2016,04,23,10,25,15.40
2016,04,23,10,26,15.40
2016,04,23,10,27,15.50
2016,04,23,10,28,15.50
2016,04,23,10,29,15.40
2016,04,23,10,30,15.40
2016,04,23,10,31,15.40
2016,04,23,10,32,15.30
2016,04,23,10,33,15.40
2016,04,23,10,34,15.40
2016,04,23,10,35,15.40
2016,04,23,10,36,15.40
2016,04,23,10,37,15.40
2016,04,23,10,38,15.40
2016,04,23,10,39,15.40
2016,04,23,10,40,15.50
2016,04,23,10,41,15.50
2016,04,23,10,42,15.50
2016,04,23,10,43,15.50
2016,04,23,10,44,15.50
2016,04,23,10,45,15.50
2016,04,23,10,46,15.50
2016,04,23,10,47,15.50
2016,04,23,10,48,15.60
2016,04,23,10,49,15.60
2016,04,23,10,50,15.60
2016,04,23,10,51,15.50
2016,04,23,10,52,15.50
2016,04,23,10,53,15.50
2016,04,23,10,54,15.60
2016,04,23,10,55,15.70
2016,04,23,10,56,15.80
2016,04,23,10,57,15.80
2016,04,23,10,58,15.90
2016,04,23,10,59,15.80
2016,04,23,11,00,15.80
2016,04,23,11,01,15.80
2016,04,23,11,02,15.80
2016,04,23,11,03,15.80
2016,04,23,11,04,15.90
2016,04,23,11,05,16.00
2016,04,23,11,06,15.90
2016,04,23,11,07,15.90
2016,04,23,11,08,15.80
2016,04,23,11,09,15.80
2016,04,23,11,10,15.70
2016,04,23,11,11,15.70
2016,04,23,11,12,15.70
2016,04,23,11,13,15.60
2016,04,23,11,14,15.60
2016,04,23,11,15,15.60
2016,04,23,11,16,15.70
2016,04,23,11,17,15.70
2016,04,23,11,18,15.60
2016,04,23,11,19,15.60
2016,04,23,11,20,15.60
2016,04,23,11,21,15.60
2016,04,23,11,22,15.60
2016,04,23,11,23,15.60
2016,04,23,11,24,15.60
2016,04,23,11,25,15.70
2016,04,23,11,26,15.70
2016,04,23,11,27,15.70
2016,04,23,11,28,15.70
2016,04,23,11,29,15.70
2016,04,23,11,30,15.70
2016,04,23,11,31,15.60
2016,04,23,11,32,15.60
2016,04,23,11,33,15.60
2016,04,23,11,34,15.60
2016,04,23,11,35,15.60
2016,04,23,11,36,15.60
2016,04,23,11,37,15.60
2016,04,23,11,38,15.60
2016,04,23,11,39,15.60
2016,04,23,11,40,15.70
2016,04,23,11,41,15.80
2016,04,23,11,42,15.80
2016,04,23,11,43,15.90
2016,04,23,11,44,16.00
2016,04,23,11,45,16.00
2016,04,23,11,46,16.10
2016,04,23,11,47,16.20
2016,04,23,11,48,16.30
2016,04,23,11,49,16.30
2016,04,23,11,50,16.40
2016,04,23,11,51,16.60
2016,04,23,11,52,16.70
2016,04,23,11,53,16.70
2016,04,23,11,54,16.60
2016,04,23,11,55,16.60
2016,04,23,11,56,16.60
2016,04,23,11,57,16.60
2016,04,23,11,58,16.50
2016,04,23,11,59,16.30
2016,04,23,12,00,16.20
2016,04,23,12,01,16.20
2016,04,23,12,02,16.20
2016,04,23,12,03,16.20
2016,04,23,12,04,16.10
2016,04,23,12,05,16.00
2016,04,23,12,06,16.00
2016,04,23,12,07,15.90
2016,04,23,12,08,15.90
2016,04,23,12,09,15.90
2016,04,23,12,10,16.00
2016,04,23,12,11,16.10
2016,04,23,12,12,16.20
2016,04,23,12,13,16.40
2016,04,23,12,14,16.60
2016,04,23,12,15,16.80
2016,04,23,12,16,16.90
2016,04,23,12,17,16.90
2016,04,23,12,18,16.90
2016,04,23,12,19,16.90
2016,04,23,12,20,16.90
2016,04,23,12,21,17.00
2016,04,23,12,22,17.10
2016,04,23,12,23,17.20
2016,04,23,12,24,17.10
2016,04,23,12,25,17.00
2016,04,23,12,26,16.90
2016,04,23,12,27,16.80
2016,04,23,12,28,16.60
2016,04,23,12,29,16.50
2016,04,23,12,30,16.40
2016,04,23,12,31,16.20
2016,04,23,12,32,16.10
2016,04,23,12,33,16.00
2016,04,23,12,34,15.90
2016,04,23,12,35,15.80
2016,04,23,12,36,15.80
2016,04,23,12,37,15.70
2016,04,23,12,38,15.70
2016,04,23,12,39,15.70
2016,04,23,12,40,15.70
2016,04,23,12,41,15.60
2016,04,23,12,42,15.60
2016,04,23,12,43,15.50
2016,04,23,12,44,15.50
2016,04,23,12,45,15.40
2016,04,23,12,46,15.40
2016,04,23,12,47,15.30
2016,04,23,12,48,15.20
2016,04,23,12,49,15.20
2016,04,23,12,50,15.10
2016,04,23,12,51,15.10
2016,04,23,12,52,15.00
2016,04,23,12,53,15.00
2016,04,23,12,54,14.90
2016,04,23,12,55,14.90
2016,04,23,12,56,14.80
2016,04,23,12,57,14.80
2016,04,23,12,58,14.80
2016,04,23,12,59,14.80
2016,04,23,13,00,14.80
2016,04,23,13,01,14.80
2016,04,23,13,02,14.80
2016,04,23,13,03,14.70
2016,04,23,13,04,14.70
2016,04,23,13,05,14.70
2016,04,23,13,06,14.70
2016,04,23,13,07,14.60
2016,04,23,13,08,14.60
2016,04,23,13,09,14.60
2016,04,23,13,10,14.50
2016,04,23,13,11,14.50
2016,04,23,13,12,14.50
2016,04,23,13,13,14.40
2016,04,23,13,14,14.40
2016,04,23,13,15,14.40
2016,04,23,13,16,14.40
2016,04,23,13,17,14.40
2016,04,23,13,18,14.40
2016,04,23,13,19,14.40
2016,04,23,13,20,14.30
2016,04,23,13,21,14.30
2016,04,23,13,22,14.20
2016,04,23,13,23,14.20
2016,04,23,13,24,14.20
2016,04,23,13,25,14.20
2016,04,23,13,26,14.30
2016,04,23,13,27,14.30
2016,04,23,13,28,14.30
2016,04,23,13,29,14.40
2016,04,23,13,30,14.40
2016,04,23,13,31,14.40
2016,04,23,13,32,14.50
2016,04,23,13,33,14.50
2016,04,23,13,34,14.60
2016,04,23,13,35,14.60
2016,04,23,13,36,14.70
2016,04,23,13,37,14.70
2016,04,23,13,38,14.70
2016,04,23,13,39,14.70
2016,04,23,13,40,14.70
2016,04,23,13,41,14.70
2016,04,23,13,42,14.70
2016,04,23,13,43,14.80
2016,04,23,13,44,14.70
2016,04,23,13,45,14.70
2016,04,23,13,46,14.80
2016,04,23,13,47,14.70
2016,04,23,13,48,14.70
2016,04,23,13,49,14.70
2016,04,23,13,50,14.70
2016,04,23,13,51,14.80
2016,04,23,13,52,15.00
2016,04,23,13,53,15.00
2016,04,23,13,54,15.10
2016,04,23,13,55,15.20
2016,04,23,13,56,15.20
2016,04,23,13,57,15.20
2016,04,23,13,58,15.20
2016,04,23,13,59,15.20
2016,04,23,14,00,15.20
2016,04,23,14,01,15.20
2016,04,23,14,02,15.20
2016,04,23,14,03,15.20
2016,04,23,14,04,15.20
2016,04,23,14,05,15.10
2016,04,23,14,06,15.20
2016,04,23,14,07,15.30
2016,04,23,14,08,15.30
2016,04,23,14,09,15.40
2016,04,23,14,10,15.40
2016,04,23,14,11,15.40
2016,04,23,14,12,15.50
2016,04,23,14,13,15.50
2016,04,23,14,14,15.60
2016,04,23,14,15,15.60
2016,04,23,14,16,15.70
2016,04,23,14,17,15.80
2016,04,23,14,18,15.90
2016,04,23,14,19,15.80
2016,04,23,14,20,15.80
2016,04,23,14,21,15.70
2016,04,23,14,22,15.70
2016,04,23,14,23,15.60
2016,04,23,14,24,15.60
2016,04,23,14,25,15.60
2016,04,23,14,26,15.60
2016,04,23,14,27,15.60
2016,04,23,14,28,15.50
2016,04,23,14,29,15.50
2016,04,23,14,30,15.50
2016,04,23,14,31,15.60
2016,04,23,14,32,15.60
2016,04,23,14,33,15.50
2016,04,23,14,34,15.60
2016,04,23,14,35,15.60
2016,04,23,14,36,15.60
2016,04,23,14,37,15.60
2016,04,23,14,38,15.50
2016,04,23,14,39,15.50
2016,04,23,14,40,15.50
2016,04,23,14,41,15.50
2016,04,23,14,42,15.50
2016,04,23,14,43,15.60
2016,04,23,14,44,15.60
2016,04,23,14,45,15.50
2016,04,23,14,46,15.40
2016,04,23,14,47,15.30
2016,04,23,14,48,15.30
2016,04,23,14,49,15.30
2016,04,23,14,50,15.30
2016,04,23,14,51,15.40
2016,04,23,14,52,15.40
2016,04,23,14,53,15.40
2016,04,23,14,54,15.50
2016,04,23,14,55,15.50
2016,04,23,14,56,15.50
2016,04,23,14,57,15.50
2016,04,23,14,58,15.60
2016,04,23,14,59,15.60
2016,04,23,15,00,15.60
2016,04,23,15,01,15.60
2016,04,23,15,02,15.60
2016,04,23,15,03,15.60
2016,04,23,15,04,15.60
2016,04,23,15,05,15.60
2016,04,23,15,06,15.60
2016,04,23,15,07,15.50
2016,04,23,15,08,15.40
2016,04,23,15,09,15.40
2016,04,23,15,10,15.40
2016,04,23,15,11,15.40
2016,04,23,15,12,15.40
2016,04,23,15,13,15.40
2016,04,23,15,14,15.30
2016,04,23,15,15,15.30
2016,04,23,15,16,15.30
2016,04,23,15,17,15.30
2016,04,23,15,18,15.30
2016,04,23,15,19,15.30
2016,04,23,15,20,15.20
2016,04,23,15,21,15.10
2016,04,23,15,22,15.00
2016,04,23,15,23,14.90
2016,04,23,15,24,14.90
2016,04,23,15,25,14.90
2016,04,23,15,26,15.00
2016,04,23,15,27,15.10
2016,04,23,15,28,15.10
2016,04,23,15,29,15.20
2016,04,23,15,30,15.20
2016,04,23,15,31,15.10
2016,04,23,15,32,15.00
2016,04,23,15,33,14.90
2016,04,23,15,34,14.90
2016,04,23,15,35,14.80
2016,04,23,15,36,14.80
2016,04,23,15,37,14.70
2016,04,23,15,38,14.60
2016,04,23,15,39,14.60
2016,04,23,15,40,14.60
2016,04,23,15,41,14.60
2016,04,23,15,42,14.70
2016,04,23,15,43,14.70
2016,04,23,15,44,14.70
2016,04,23,15,45,14.80
2016,04,23,15,46,14.70
2016,04,23,15,47,14.70
2016,04,23,15,48,14.70
2016,04,23,15,49,14.80
2016,04,23,15,50,14.80
2016,04,23,15,51,14.90
2016,04,23,15,52,15.00
2016,04,23,15,53,15.00
2016,04,23,15,54,15.10
2016,04,23,15,55,15.10
2016,04,23,15,56,15.10
2016,04,23,15,57,15.10
2016,04,23,15,58,15.10
2016,04,23,15,59,15.10
2016,04,23,16,00,15.00
2016,04,23,16,01,14.90
2016,04,23,16,02,14.90
2016,04,23,16,03,14.90
2016,04,23,16,04,14.90
2016,04,23,16,05,15.00
2016,04,23,16,06,14.90
2016,04,23,16,07,14.90
2016,04,23,16,08,14.90
2016,04,23,16,09,14.80
2016,04,23,16,10,14.80
2016,04,23,16,11,14.70
2016,04,23,16,12,14.70
2016,04,23,16,13,14.70
2016,04,23,16,14,14.70
2016,04,23,16,15,14.70
2016,04,23,16,16,14.70
2016,04,23,16,17,14.80
2016,04,23,16,18,14.80
2016,04,23,16,19,14.80
2016,04,23,16,20,14.80
2016,04,23,16,21,14.70
2016,04,23,16,22,14.70
2016,04,23,16,23,14.70
2016,04,23,16,24,14.70
2016,04,23,16,25,14.70
2016,04,23,16,26,14.70
2016,04,23,16,27,14.70
2016,04,23,16,28,14.70
2016,04,23,16,29,14.80
2016,04,23,16,30,14.80
2016,04,23,16,31,14.90
2016,04,23,16,32,14.90
2016,04,23,16,33,14.90
2016,04,23,16,34,14.90
2016,04,23,16,35,14.90
2016,04,23,16,36,14.90
2016,04,23,16,37,14.80
2016,04,23,16,38,14.80
2016,04,23,16,39,14.80
2016,04,23,16,40,14.80
2016,04,23,16,41,14.80
2016,04,23,16,42,14.80
2016,04,23,16,43,14.80
2016,04,23,16,44,14.90
2016,04,23,16,45,14.90
2016,04,23,16,46,14.90
2016,04,23,16,47,14.80
2016,04,23,16,48,14.80
2016,04,23,16,49,14.80
2016,04,23,16,50,14.90
2016,04,23,16,51,14.80
2016,04,23,16,52,14.80
2016,04,23,16,53,14.80
2016,04,23,16,54,14.80
2016,04,23,16,55,14.80
2016,04,23,16,56,14.70
2016,04,23,16,57,14.70
2016,04,23,16,58,14.70
2016,04,23,16,59,14.70
2016,04,23,17,00,14.70
2016,04,23,17,01,14.70
2016,04,23,17,02,14.70
2016,04,23,17,03,14.70
2016,04,23,17,04,14.70
2016,04,23,17,05,14.80
2016,04,23,17,06,14.70
2016,04,23,17,07,14.70
2016,04,23,17,08,14.60
2016,04,23,17,09,14.60
2016,04,23,17,10,14.60
2016,04,23,17,11,14.60
2016,04,23,17,12,14.60
2016,04,23,17,13,14.60
2016,04,23,17,14,14.50
2016,04,23,17,15,14.40
2016,04,23,17,16,14.30
2016,04,23,17,17,14.30
2016,04,23,17,18,14.30
2016,04,23,17,19,14.20
2016,04,23,17,20,14.20
2016,04,23,17,21,14.20
2016,04,23,17,22,14.20
2016,04,23,17,23,14.20